#timestamp,LO_Frequency,Hit,StdDev 
1507593615.9,286046984.4,P
1507593635.7,286046982.3,Y
1507593655.6,286046990.1,P
1507593675.4,286046988.9,P
1507593695.2,286046989.9,P
1507593715.1,286046987.3,Y
1507593716.0,286046987.3,P
1507593735.8,286046999.3,N
1507593755.6,286046997.1,N
1507593775.5,286046999.4,N
1507593795.3,286046997.1,N
1507593815.1,286046998.4,N
1507593835.9,286047001.0,N
1507593855.7,286047000.8,N
1507593875.5,286046999.2,N
1507593895.4,286046996.5,N
1507593915.2,286047001.0,N
1507593935.0,286047001.1,N
1507593935.9,286047001.1,N
1507593955.8,286046998.1,N
1507593975.6,286047002.3,N
1507593995.4,286047002.7,N
1507594015.2,286047000.1,N
1507594035.1,286047004.4,N
1507594036.0,286047004.4,N
1507594055.8,286047003.4,N
1507594075.6,286047003.5,N
1507594095.5,286047005.9,N
1507594115.3,286047006.0,N
1507594135.1,286047005.0,N
1507594155.9,286047003.5,N
1507594175.7,286047003.0,N
1507594195.5,286047004.3,N
1507594215.4,286047003.5,N
1507594235.2,286047004.4,N
1507594255.0,286047007.2,N
1507594255.9,286047007.2,N
1507594275.8,286047005.3,N
1507594295.6,286047004.7,N
1507594315.4,286047006.0,N
1507594335.2,286047002.9,N
1507594355.1,286047003.4,N
1507594356.0,286047003.4,N
1507594375.8,286047003.8,N
1507594395.6,286047003.2,N
1507594415.5,286047005.1,N
1507594435.3,286047003.4,N
1507594455.1,286047003.3,N
1507594475.9,286047004.1,N
1507594495.7,286047001.6,N
1507594515.5,286047000.1,N
1507594535.4,286047003.7,N
1507594555.2,286047002.5,N
1507594575.0,286047001.6,N
1507594575.9,286047001.6,N
1507594595.8,286047001.4,N
1507594615.6,286047001.5,N
1507594635.4,286047001.5,N
1507594655.3,286047000.1,N
1507594675.1,286047001.8,N
1507594676.0,286047001.8,N
1507594695.8,286047004.3,N
1507594715.7,286047002.4,N
1507594735.5,286047002.6,N
1507594755.3,286047001.3,N
1507594775.1,286047004.0,N
1507594795.9,286047002.6,N
1507594815.7,286047002.5,N
1507594835.5,286047001.0,N
1507594855.4,286046999.9,N
1507594875.2,286047002.2,N
1507594895.0,286047001.5,N
1507594895.9,286047001.5,N
1507594915.8,286047001.8,N
1507594935.6,286047004.5,Y
1507594955.4,286047001.9,P
1507594975.3,286047000.9,P
1507594995.1,286047002.1,P
1507595015.8,286047003.7,Y
1507595035.7,286047001.5,P
1507595055.5,286047004.7,P
1507595075.3,286047003.5,N
1507595095.2,286047003.3,N
1507595115.9,286047000.8,N
1507595135.7,286047005.7,Y
1507595155.6,286047007.3,P
1507595175.4,286047008.5,P
1507595195.2,286047009.0,P
1507595215.1,286047010.7,Y
1507595216.0,286047010.7,P
1507595235.8,286047001.3,N
1507595255.6,286047001.9,N
1507595275.5,286047001.3,N
1507595295.3,286047003.0,N
1507595315.1,286047003.3,N
1507595335.9,286047000.0,N
1507595355.7,286047000.1,N
1507595375.5,286046996.5,N
1507595395.4,286046995.1,N
1507595415.2,286046996.9,N
1507595435.0,286046995.4,N
1507595435.9,286046995.4,N
1507595455.7,286046996.8,N
1507595475.6,286046996.9,N
1507595495.4,286046995.3,N
1507595515.2,286046993.5,N
1507595535.1,286046997.8,N
1507595536.0,286046997.8,N
1507595555.8,286046997.6,N
1507595575.6,286046994.9,N
1507595595.5,286046999.0,N
1507595615.3,286046996.3,N
1507595635.1,286046994.7,N
1507595655.9,286046990.9,N
1507595675.7,286046990.2,N
1507595695.5,286046991.7,N
1507595715.4,286046989.3,N
1507595735.2,286046987.1,N
1507595755.0,286046987.6,N
1507595755.9,286046987.6,N
1507595775.8,286046984.5,Y
1507595795.6,286046994.4,P
1507595815.4,286046995.2,P
1507595835.3,286046992.5,P
1507595855.1,286046990.9,Y
1507595856.0,286046990.9,P
1507595875.8,286046996.3,N
1507595895.7,286046993.6,N
1507595915.5,286046995.8,N
1507595935.3,286046995.9,N
1507595955.2,286046993.6,Y
1507595975.9,286047000.6,P
1507595995.7,286047002.6,N
1507596015.6,286047001.5,N
1507596035.4,286047001.9,N
1507596055.2,286046999.7,N
1507596075.0,286046999.8,N
1507596075.9,286046999.8,N
1507596095.8,286047000.0,N
1507596115.6,286046999.7,N
1507596135.4,286047002.0,N
1507596155.3,286047002.4,N
1507596175.1,286047002.5,N
1507596195.8,286047001.6,N
1507596215.7,286047002.0,N
1507596235.5,286047002.6,N
1507596255.3,286047001.5,N
1507596275.2,286047003.6,N
1507596295.9,286047002.0,N
1507596315.7,286047003.9,N
1507596335.6,286047003.9,N
1507596355.4,286047004.2,N
1507596375.2,286047006.0,N
1507596395.0,286047003.0,N
1507596396.0,286047003.0,N
1507596415.8,286047003.6,N
1507596435.6,286047005.6,N
1507596455.4,286047003.5,N
1507596475.3,286047003.1,N
1507596495.1,286047005.8,N
1507596515.8,286047003.3,N
1507596535.7,286047003.2,N
1507596555.5,286047003.2,N
1507596575.3,286047001.8,N
1507596595.2,286046999.7,N
1507596615.9,286046999.7,N
1507596635.7,286046998.3,N
1507596655.6,286047000.4,N
1507596675.4,286047000.7,N
1507596695.2,286046996.5,N
1507596715.1,286046997.0,N
1507596716.0,286046997.0,N
1507596735.8,286046995.7,N
1507596755.6,286046995.9,N
1507596775.4,286046993.4,N
1507596795.3,286046994.7,N
1507596815.1,286046990.5,N
1507596835.8,286046993.0,N
1507596855.7,286046992.4,N
1507596875.5,286046994.6,N
1507596895.3,286046992.1,N
1507596915.2,286046994.4,N
1507596935.9,286046992.0,N
1507596955.7,286046992.8,N
1507596975.6,286046988.8,N
1507596995.4,286046989.6,N
1507597015.2,286046989.1,N
1507597035.1,286046990.1,N
1507597036.0,286046990.1,N
1507597055.8,286046991.0,N
1507597075.6,286046989.2,N
1507597095.5,286046989.7,N
1507597115.3,286046991.5,N
1507597135.1,286046988.7,N
1507597155.8,286046989.2,N
1507597175.7,286046990.0,N
1507597195.5,286046989.8,N
